"Pseudo-MPEC" for ZTB654C

Created 2018 Oct 12 20:18:30 UT using Find_Orb

Click here for an explanation of pseudo-MPECs

 
 Astrometry: 
     ZTB654C  C2018 10 10.27361 01 45 24.69 +27 34 48.5          20.7 GVNEOCPG96
     ZTB654C  C2018 10 10.27877 01 45 24.57 +27 34 49.7          20.7 GVNEOCPG96
     ZTB654C  C2018 10 10.28393 01 45 24.42 +27 34 51.0          21.1 GVNEOCPG96
     ZTB654C  C2018 10 10.28908 01 45 24.25 +27 34 51.8          20.8 GVNEOCPG96
     ZTB654C  C2018 10 10.40264 01 45 20.81 +27 35 09.5          20.7 GVNEOCPI52
     ZTB654C  C2018 10 10.41032 01 45 20.58 +27 35 10.0          20.7 GVNEOCPI52
     ZTB654C  C2018 10 10.41877 01 45 20.34 +27 35 11.6          21.0 GVNEOCPI52
     ZTB654C  C2018 10 10.42625 01 45 20.08 +27 35 12.9          21.3 GVNEOCPI52
     ZTB654C KC2018 10 10RHAstrometryEE!H0pYRWAkhk?165@\m?xEXU+#.T-UKq%*I]KoKK88
     ZTB654C KC2018 10 10=4Lw2@y9Q%Ka1OI?Qredacted;VtMS,P62EO4B4^l.7rGiRM*=S\K88
     ZTB654C KC2018 10 10-cVdj/J@\feT8khv^P40QW$aYZ:;B#K,G5Vg5m-+2aC$)s3-eCC%K88
     ZTB654C KC2018 10 11$srFPC,wXeG/r,v4)=#pQdPp)s9bPq\Hseeq2E#0$tO%]!2Y5o3-L01
     ZTB654C pC2018 10 11r)87Z.t-!\]M_D++ocvDh3yTm5$vPd4gxva+wxCJp(I!3KJNEOCPL01

Station data:
(G96) Mt. Lemmon Survey  (N32.442754 W110.788720)  US/Arizona.  Observers B.
   M. Africano, E. J. Christensen, D. C. Fuls, A. R. Gibbs, A. D. Grauer, J.
   A. Johnson, R. A. Kowalski, S. M. Larson, G. J. Leonard, R. L. Seaman, F.
   C. Shelly. 1.5-m reflector + 10K CCD.
(I52) Steward Observatory, Mt. Lemmon Station  (N32.442547 W110.788920)
   US/Arizona.  Observers B. M. Africano, E. J. Christensen, D. C. Fuls, A.
   R. Gibbs, A. D. Grauer, J. A. Johnson, R. A. Kowalski, S. M. Larson, G. J.
   Leonard, R. L. Seaman, F. C. Shelly. 1.0-m reflector + CCD.
(K88) GINOP-KHK, Piszkéstető  (N47.917622 E19.893600)  Hungary.  Observer K.
   Sárneczky. 0.60-m Schmidt + CCD.
(L01) Višnjan Observatory, Tičan  (N45.290900 E13.749300)  Croatia.  Observer
   K. Korlević. 1.0-m f/2.9 reflector + CCD.

Orbital elements:  ZTB654C
   Perihelion 2018 Aug 29.766040 +/- 7.82 TT = 18:23:05 (JD 2458360.266040)
Epoch 2018 Oct 11.0 TT = JDT 2458402.5   Earth MOID: 0.3942   Ma: 0.0883
M   9.84389 +/- 0.9                 (J2000 ecliptic)          AutoNEOCP
n   0.23307999 +/- 0.035            Peri.   34.89400 +/- 10
a   2.61496601 +/- 0.263            Node   318.26665 +/- 4.6
e   0.4665113 +/- 0.0613            Incl.    5.67764 +/- 0.25
P   4.23                   H 21.1   G  0.15   U 10.5  
q 1.39505467 +/- 0.0245    Q 3.83487734 +/- 0.542
From 13 observations 2018 Oct. 10-11 (38.3 hr); mean residual 0".24
Residuals in arcseconds: 
181010 G96  .42-  .39-    181010 I52  .09+  .57-    181010 K88  .08+  .25+    
181010 G96  .05+  .11-    181010 I52  .23+  .13-    181011 L01  .11+  .15+    
181010 G96  .13+  .27+    181010 I52  .30-  .17+    181011 L01  .22-  .43-    
181010 G96  .06-  .16+    181010 K88  .10+  .31+    
181010 I52  .10+  .00     181010 K88  .09+  .28+    

Ephemerides (geocentric):
Date (UTC) HH   RA              Dec         delta   r     elong  mag " sig PA
---- -- -- --  -------------   -----------  ------ ------ -----  --- ---- ---
2018 10 12 20  01 44 21.693   +27 40 09.51  .48653 1.4612 158.3 21.2  1.2  85
2018 10 12 21  01 44 20.627   +27 40 13.04  .48660 1.4613 158.4 21.2  1.3  85
2018 10 12 22  01 44 19.560   +27 40 16.52  .48667 1.4614 158.4 21.2  1.4  84
2018 10 12 23  01 44 18.492   +27 40 19.94  .48675 1.4615 158.4 21.2  1.4  83
2018 10 13 00  01 44 17.423   +27 40 23.32  .48682 1.4617 158.4 21.2  1.5  83
2018 10 13 01  01 44 16.352   +27 40 26.64  .48690 1.4618 158.5 21.2  1.5  82
2018 10 13 02  01 44 15.280   +27 40 29.90  .48697 1.4619 158.5 21.2  1.6  81
2018 10 13 03  01 44 14.207   +27 40 33.12  .48705 1.4620 158.5 21.2  1.7  81
2018 10 13 04  01 44 13.133   +27 40 36.28  .48712 1.4621 158.6 21.2  1.7  80
2018 10 13 05  01 44 12.057   +27 40 39.40  .48720 1.4623 158.6 21.2  1.8  80
2018 10 13 06  01 44 10.980   +27 40 42.46  .48727 1.4624 158.6 21.2  1.9  79
2018 10 13 07  01 44 09.903   +27 40 45.46  .48735 1.4625 158.6 21.2  1.9  79
2018 10 13 08  01 44 08.824   +27 40 48.42  .48742 1.4626 158.7 21.1  2.0  78
2018 10 13 09  01 44 07.744   +27 40 51.33  .48750 1.4628 158.7 21.1  2.1  78
2018 10 13 10  01 44 06.662   +27 40 54.18  .48758 1.4629 158.7 21.1  2.1  78
2018 10 13 11  01 44 05.580   +27 40 56.98  .48765 1.4630 158.8 21.1  2.2  77
2018 10 13 12  01 44 04.496   +27 40 59.73  .48773 1.4631 158.8 21.1  2.3  77
2018 10 13 13  01 44 03.412   +27 41 02.43  .48781 1.4632 158.8 21.1  2.4  76
2018 10 13 14  01 44 02.326   +27 41 05.07  .48789 1.4634 158.8 21.1  2.4  76
2018 10 13 15  01 44 01.239   +27 41 07.67  .48796 1.4635 158.9 21.1  2.5  76
2018 10 13 16  01 44 00.152   +27 41 10.21  .48804 1.4636 158.9 21.1  2.6  75
2018 10 13 17  01 43 59.063   +27 41 12.70  .48812 1.4637 158.9 21.1  2.7  75
2018 10 13 18  01 43 57.973   +27 41 15.14  .48820 1.4638 159.0 21.1  2.8  75
2018 10 13 19  01 43 56.882   +27 41 17.53  .48828 1.4640 159.0 21.1  2.9  74
2018 10 13 20  01 43 55.790   +27 41 19.87  .48836 1.4641 159.0 21.1  2.9  74
2018 10 13 21  01 43 54.697   +27 41 22.16  .48844 1.4642 159.0 21.1  3.0  74
2018 10 13 22  01 43 53.603   +27 41 24.40  .48852 1.4643 159.1 21.1  3.1  73
2018 10 13 23  01 43 52.508   +27 41 26.58  .48860 1.4645 159.1 21.1  3.2  73
2018 10 14 00  01 43 51.412   +27 41 28.71  .48868 1.4646 159.1 21.1  3.3  73
2018 10 14 01  01 43 50.315   +27 41 30.80  .48876 1.4647 159.1 21.1  3.4  73
2018 10 14 02  01 43 49.217   +27 41 32.83  .48884 1.4648 159.2 21.1  3.5  72
2018 10 14 03  01 43 48.118   +27 41 34.81  .48892 1.4650 159.2 21.1  3.6  72
2018 10 14 04  01 43 47.018   +27 41 36.74  .48900 1.4651 159.2 21.1  3.7  72
2018 10 14 05  01 43 45.918   +27 41 38.62  .48908 1.4652 159.3 21.1  3.8  72
2018 10 14 06  01 43 44.816   +27 41 40.45  .48916 1.4653 159.3 21.1  3.9  71
2018 10 14 07  01 43 43.713   +27 41 42.23  .48925 1.4654 159.3 21.1  4.0  71
2018 10 14 08  01 43 42.610   +27 41 43.95  .48933 1.4656 159.3 21.1  4.1  71
2018 10 14 09  01 43 41.505   +27 41 45.63  .48941 1.4657 159.4 21.1  4.2  71
2018 10 14 10  01 43 40.400   +27 41 47.25  .48949 1.4658 159.4 21.1  4.3  71
2018 10 14 11  01 43 39.294   +27 41 48.83  .48958 1.4659 159.4 21.1  4.4  70
2018 10 14 12  01 43 38.187   +27 41 50.36  .48966 1.4661 159.4 21.1  4.5  70
2018 10 14 13  01 43 37.079   +27 41 51.83  .48974 1.4662 159.5 21.1  4.6  70
2018 10 14 14  01 43 35.970   +27 41 53.25  .48983 1.4663 159.5 21.1  4.7  70
2018 10 14 15  01 43 34.861   +27 41 54.63  .48991 1.4664 159.5 21.1  4.8  70
2018 10 14 16  01 43 33.750   +27 41 55.95  .48999 1.4666 159.6 21.1  4.9  69
2018 10 14 17  01 43 32.639   +27 41 57.23  .49008 1.4667 159.6 21.1  5.0  69
2018 10 14 18  01 43 31.527   +27 41 58.45  .49016 1.4668 159.6 21.1  5.1  69
2018 10 14 19  01 43 30.415   +27 41 59.62  .49025 1.4669 159.6 21.1  5.2  69